Regional Weather Roundup
Issued by NWS Burlington, VT

Home | Current Version | Previous Version | Text Only | Print | Product List | Glossary On
Versions: 1 2 3 4 5 6 7 8 9 10 11 12 13 14 15 16 17 18 19 20 21 22 23 24 25 26 27 28 29 30 31 32 33 34 35 36 37 38 39 40 41 42 43 44 45 46 47 48 49 50
043
ASUS41 KBTV 240130
RWRBTV
VERMONT REGIONAL WEATHER ROUNDUP
NATIONAL WEATHER SERVICE BURLINGTON VT
900 PM EDT SAT JUL 23 2016

NOTE: "FAIR" INDICATES FEW OR NO CLOUDS BELOW 12,000 FEET WITH NO
SIGNIFICANT WEATHER AND/OR OBSTRUCTIONS TO VISIBILITY.

* THESE REPORTS ARE NOT UNDER NWS QUALITY CONTROL AND/OR DO NOT
  REPORT WEATHER SUCH AS PRECIPITATION AND FOG.

VTZ001>019-240200-
_____VERMONT_____


CITY           SKY/WX    TMP DP  RH WIND       PRES   REMARKS
BURLINGTON     FAIR      66  62  87 E3        29.89R
MONTPELIER     FAIR      63  59  87 N3        29.94R
MORRISVILLE    FAIR      61  59  93 CALM      29.92S FOG
ST. JOHNSBURY*   N/A     64  61  90 MISG      29.87R
LYNDONVILLE*   FAIR      61  59  93 CALM      29.92R
MIDDLEBURY*    FAIR      63  63 100 CALM      29.92R
RUTLAND*       FAIR      62  60  93 NW3       29.92R
SPRINGFIELD    FAIR      65  58  78 NW5       29.89R
HIGHGATE*      MOCLDY    64  63  97 CALM      29.88R
NEWPORT*       FAIR      60  59  96 CALM      29.90R
BENNINGTON     FAIR      63  61  93 CALM      29.92S
SUTTON*          N/A     59 N/A N/A MISG        N/A
GALLUP MILLS*    N/A     59 N/A N/A MISG        N/A
UNION VILLAGE*   N/A     63 N/A N/A MISG        N/A
MT. MANSFIELD*   N/A     55 N/A N/A NW26        N/A

_____LAKE CHAMPLAIN_____


CITY           SKY/WX    TMP DP  RH WIND       PRES   REMARKS
BURTON ISLAND*   N/A     68  64  88 SE8         N/A
COLCHESTER RF*   N/A     70  64  83 S9          N/A
DIAMOND ISL*     N/A     68  64  88 S5          N/A

$$

NYZ007-026>031-035-052-083-087-240200-
_____NORTHERN NEW YORK_____


CITY           SKY/WX    TMP DP  RH WIND       PRES   REMARKS
PLATTSBURGH    PTCLDY    65  64  97 SE5       29.87R
SARANAC LAKE   PTCLDY    62  59  90 CALM      29.94R
MASSENA        CLEAR     68  64  87 SW3       29.91R
OGDENSBURG*    CLEAR     73  63  68 N3        29.91R
POTSDAM*       PTCLDY    66  66 100 CALM      29.93R
STARK FALLS*     N/A    N/A N/A N/A CALM        N/A
WATERTOWN      PTCLDY    74  63  68 NE8       29.91R
FT DRUM        CLEAR     71  67  85 SW3       29.93R
ALBANY         PTCLDY    68  64  87 CALM      29.90F
GLENS FALLS    CLEAR     64  62  93 CALM      29.91R FOG

$$
NHZ002-005-011-240200-
_____NEW HAMPSHIRE_____


CITY           SKY/WX    TMP DP  RH WIND       PRES   REMARKS
LEBANON        PTCLDY    63  61  93 CALM      29.88R FOG
KEENE          MOCLDY    64  63  94 E3        29.90R
MT WASHINGTON  FOG       45  45 100 NW39G49     N/A  VSB 1/16
PLYMOUTH       FAIR      64  60  88 CALM      29.86R
WHITEFIELD     PTCLDY    63  60  90 SW3       29.89R

$$

_____REGIONAL QUEBEC LOCATIONS_____


CITY           SKY/WX    TMP DP  RH WIND       PRES   REMARKS
MONTREAL       PTCLDY    72  66  83 W9        29.86R
QUEBEC CITY    PTCLDY    70  59  68 N9        29.80R
SHERBROOKE     CLOUDY    64  63  94 W5        29.86R

_____REGIONAL ONTARIO LOCATIONS_____


CITY           SKY/WX    TMP DP  RH WIND       PRES   REMARKS
OTTAWA         PTCLDY    77  61  57 NW13      29.92R

______KEY______
VSB  - VISIBILITY IN MILES
WCI  - WIND CHILL INDEX
HX   - HEAT INDEX
$$
NNNN




USA.gov is the U.S. government's official web portal to all federal, state and local government web resources and services.